Retour au catalogue

DELTA 1 DEB

ActifSSO
NORAD 7029·DEBRIS·🇺🇸 United States

Lancé Nov 6, 1973 depuis Vandenberg Space Force Base

Loading…

Prochains Passages (prochaines 24 heures)

TLE

FraisSource: Space-Track

Époque: Sep 14, 2026, 13:27 UTC

1 07029U 73086V   26257.56099646 -.00000046  00000-0  40089-5 0  9996
2 07029 102.3489 275.7986 0012638  79.5536  74.5286 12.37176492386838

Suivez DELTA 1 DEB en temps réel avec AllMySat

Download on the App Store